Location: Fort Wayne
(41.1310°N, 85.1290°W)
Time: 01:09:20
(UTC-04:00)

OPAL - Visible Passes

Search period start: 28 September 2016 00:00
Search period end: 08 October 2016 00:00
Orbit: 744 x 795 km, 100.2° (Epoch: 26 September)

Date Brightness Start Highest point End Pass type
(mag) Time Alt. Az. Time Alt. Az. Time Alt. Az.
28 Sep 10.2 03:28:43 10° NE 03:29:51 15° NE 03:29:51 15° NE visible
28 Sep 8.8 05:07:08 10° N 05:10:09 30° NNW 05:10:09 30° NNW visible
29 Sep 9.0 04:31:26 10° NNE 04:34:08 31° NNE 04:34:08 31° NNE visible
29 Sep 9.5 06:12:48 10° NW 06:14:25 12° NW 06:14:25 12° NW visible
30 Sep 9.7 03:56:12 10° NNE 03:58:07 22° NE 03:58:07 22° NE visible
30 Sep 9.1 05:35:40 10° N 05:38:24 22° NW 05:38:24 22° NW visible
01 Oct 10.4 03:21:37 10° NE 03:22:07 12° NE 03:22:07 12° NE visible
01 Oct 8.9 04:59:36 10° N 05:02:23 30° NNW 05:02:23 30° NNW visible
02 Oct 9.3 04:24:01 10° NNE 04:26:23 27° NNE 04:26:23 27° NNE visible
02 Oct 9.4 06:04:40 10° NNW 06:06:40 14° NW 06:06:40 14° NW visible
03 Oct 10.0 03:48:55 10° NNE 03:50:22 18° NE 03:50:22 18° NE visible
03 Oct 9.0 05:28:00 10° N 05:30:39 23° NNW 05:30:39 23° NNW visible
04 Oct 9.0 04:52:06 10° N 04:54:38 29° N 04:54:38 29° N visible
05 Oct 9.6 04:16:38 10° NNE 04:18:37 23° NNE 04:18:37 23° NNE visible
05 Oct 9.3 05:56:47 10° NNW 05:58:54 16° NW 05:58:54 16° NW visible
06 Oct 10.3 03:41:42 10° NE 03:42:36 14° NE 03:42:36 14° NE visible
06 Oct 9.0 05:20:24 10° N 05:22:53 24° NNW 05:22:53 24° NNW visible
07 Oct 9.2 04:44:37 10° NNE 04:46:52 26° N 04:46:52 26° N visible
07 Oct 9.6 06:26:54 10° NW 06:27:09 10° NW 06:27:09 10° NW visible
